Regional Weather Roundup
Issued by NWS

Home | Current Version | Previous Version | Graphics & Text | Print | Product List | Glossary On
Versions: 1 2 3 4 5 6 7 8 9 10 11 12 13 14 15 16 17 18 19 20 21 22 23 24 25 26 27 28 29 30 31 32 33 34 35 36 37 38 39 40 41 42 43 44 45 46 47 48 49 50
000
ASUS43 KMKX 290600
RWRWI

WISCONSIN REGIONAL WEATHER ROUNDUP
NATIONAL WEATHER SERVICE MILWAUKEE/SULLIVAN WI
100 AM CDT THU JUN 29 2017

NOTE: "FAIR" INDICATES FEW OR NO CLOUDS BELOW 12,000 FEET WITH NO
SIGNIFICANT WEATHER AND/OR OBSTRUCTIONS TO VISIBILITY.

WIZ001-002-006>008-014>016-023>028-290700-
NORTHWEST WISCONSIN

CITY           SKY/WX    TMP DP  RH WIND       PRES   REMARKS
SUPERIOR ARPT  NOT AVBL
ASHLAND        RAIN      66  65  96 S10       29.51S FOG
6HR MIN TEMP:  63; 6HR MAX TEMP:  66; 6HR PCP:  0.33;

HAYWARD        CLOUDY    65  62  90 SW10      29.55S
6HR MIN TEMP:  65; 6HR MAX TEMP:  68; 6HR PCP:  0.13;

SIREN          DRIZZLE   64  62  93 NW10      29.58R
CUMBERLAND     CLOUDY    63  61  94 W13G18    29.59R
RICE LAKE      CLOUDY    66  62  86 SW5       29.60R
CHETEK         CLOUDY    66  65  95 SW3       29.59S
LADYSMITH      LGT RAIN  66  65  96 SW8       29.59S
EAU CLAIRE     NOT AVBL
MENOMONIE      CLOUDY    67  66  95 CALM      29.61R
6HR MIN TEMP:  67; 6HR MAX TEMP:  70;

NEW RICHMOND   CLOUDY    67  58  74 W10G16    29.62R
OSCEOLA        CLOUDY    66  62  86 W10       29.63R
$$

WIZ003>005-009-010-017-018-290700-
NORTH CENTRAL WISCONSIN

CITY           SKY/WX    TMP DP  RH WIND       PRES   REMARKS
MANITOWISH WTR CLOUDY    64  64 100 S8        29.58F
ARBOR VITAE    CLOUDY    65  64  95 S7        29.58F
WOODRUFF       CLOUDY    65  64  95 S7        29.58F
RHINELANDER    CLOUDY    65  65 100 S7        29.61F
6HR MIN TEMP:  63; 6HR MAX TEMP:  65; 6HR PCP: TRACE;

EAGLE RIVER    CLOUDY    64  64 100 S5        29.60F
LAND O LAKES   CLOUDY    65  65  99 S8        29.62S FOG
PHILLIPS       CLOUDY    64  64 100 S7        29.58S
TOMAHAWK       NOT AVBL
MEDFORD        PTCLDY    63  61  94 SW9       29.61F
MERRILL        CLOUDY    65  65 100 CALM      29.61F
6HR MIN TEMP:  65; 6HR MAX TEMP:  66;

$$

WIZ029-030-035-036-043>047-290700-
CENTRAL WISCONSIN

CITY           SKY/WX    TMP DP  RH WIND       PRES   REMARKS
WAUSAU         CLOUDY    65  65 100 S8        29.60F
6HR MIN TEMP:  65; 6HR MAX TEMP:  67; 6HR PCP:  0.06;

MOSINEE        CLOUDY    64  64 100 S7        29.62F FOG
MARSHFIELD     CLOUDY    64  62  93 SW8       29.61S FOG
6HR MIN TEMP:  64; 6HR MAX TEMP:  66; 6HR PCP:  0.03;

STEVENS POINT  CLOUDY    64  64 100 S3        29.62F
WAUPACA        CLOUDY    67  66  97 S5        29.63S
WAUTOMA        CLOUDY    64  63  96 CALM      29.64S
6HR MIN TEMP:  64; 6HR MAX TEMP:  68; 6HR PCP: TRACE;

WISC RAPIDS    MOCLDY    66  64  93 SW6       29.63F
6HR MIN TEMP:  66; 6HR MAX TEMP:  69; 6HR PCP:  0.01;

CAMP DOUGLAS   MOCLDY    66  61  85 W3        29.61S
6HR MIN TEMP:  66; 6HR MAX TEMP:  69; 6HR PCP:  0.03;

$$

WIZ011>013-019>022-031-037>040-048>050-290700-
NORTHEAST WISCONSIN

CITY           SKY/WX    TMP DP  RH WIND       PRES   REMARKS
ANTIGO         CLOUDY    64  64 100 S8        29.63F
SHAWANO        CLOUDY    68  64  88 CALM      29.62F
OCONTO         MOCLDY    64  62  91 CALM      29.62F
STURGEON BAY     N/A     61  59  93 S10       29.65F
6HR MIN TEMP:  59; 6HR MAX TEMP:  63;

GREEN BAY      MOCLDY    67  66  97 S10       29.64F
6HR MIN TEMP:  65; 6HR MAX TEMP:  68;

MANITOWOC      TSTM      59  57  94 S9        29.70R
APPLETON       MOCLDY    63  63 100 S10       29.63F
CLINTONVILLE   CLOUDY    64  61  88 S6        29.63S
OSHKOSH        CLOUDY    66  63  90 S6        29.64F
6HR MIN TEMP:  65; 6HR MAX TEMP:  69; 6HR PCP:  0.03;

$$

WIZ032>034-041-042-053>061-290700-
SOUTHWEST WISCONSIN

CITY           SKY/WX    TMP DP  RH WIND       PRES   REMARKS
LA CROSSE      CLOUDY    70  65  84 S10       29.63F
6HR MIN TEMP:  70; 6HR MAX TEMP:  75; 6HR PCP:  0.48;

SPARTA         CLOUDY    64  64  98 CALM      29.64S
VIROQUA        CLOUDY    65  65 100 S5        29.66F
BOSCOBEL       CLOUDY    67  65  93 CALM      29.66F
6HR MIN TEMP:  66; 6HR MAX TEMP:  71;

PRAIRIE DU CHI MOCLDY    66  64  93 N3        29.69R
PLATTEVILLE    MOCLDY    66  66 100 SE5       29.72R
$$

WIZ056-057-062-063-064-067-068-290700-
SOUTH CENTRAL WISCONSIN

CITY           SKY/WX    TMP DP  RH WIND       PRES   REMARKS
REEDSBURG      DRIZZLE   67  67 100 S20G26    29.60F
BARABOO/DELLS  CLOUDY    67  64  89 S16       29.65F
LONE ROCK      NOT AVBL
MINERAL POINT  CLOUDY    66  66 100 N5        29.74R
MADISON        CLOUDY    66  65  96 S10       29.70F
6HR MIN TEMP:  63; 6HR MAX TEMP:  70; 6HR PCP:  1.07;

MIDDLETON      CLOUDY    68  68  99 SW6       29.71F
WATERTOWN      CLOUDY    65  65 100 SW9       29.71R
MONROE         TSTM      68  64  88 W3        29.75R
JANESVILLE     RAIN      66  66 100 N8        29.76R
$$

WIZ051-052-058>065-066-070>072-290700-
SOUTHEAST WISCONSIN

CITY           SKY/WX    TMP DP  RH WIND       PRES   REMARKS
MILWAUKEE      LGT RAIN  67  64  90 S12       29.75R
6HR MIN TEMP:  65; 6HR MAX TEMP:  73; 6HR PCP:  1.23;

WAUKESHA       CLOUDY    63  61  94 S10G17    29.74R
MILWAUKEE/TIMM CLOUDY    64  61  88 S10       29.73R
RACINE         CLOUDY    64  62  93 S17G26    29.77R
6HR MIN TEMP:  64; 6HR MAX TEMP:  73; 6HR PCP:  1.24;

KENOSHA        CLOUDY    65  63  93 S10G21    29.77S
6HR MIN TEMP:  64; 6HR MAX TEMP:  74; 6HR PCP:  0.59;

FOND DU LAC    CLOUDY    68  62  81 S12       29.66F
6HR MIN TEMP:  65; 6HR MAX TEMP:  69; 6HR PCP:  0.09;

SHEBOYGAN      CLOUDY    64  64 100 S15       29.68F
6HR MIN TEMP:  62; 6HR MAX TEMP:  65; 6HR PCP:  0.10;

WEST BEND      CLOUDY    63  63 100 S10       29.68F
JUNEAU         CLOUDY    66  64  93 S17G26    29.70R
$$

LSZ147-162-290700-
LAKE SUPERIOR

STATION/POSITION TIME  TEMP    WIND        PRES    WAVE
                       AIR SEA DIR/SP/G            HT/PER
                 (UTC) (F)     (DEG/KT/KT) (MB)    (FT/S)
W MID LAKE BUOY  0450   46 39   60/ 14/ 17 1000.9F   2/ 4
DEVILS ISLAND    0500   51      70/ 16/ 17  999.6F
SAXON HARBOR     0540   66     190/  1/  4  999.0F
$$

LMZ867-665-643>646-290700-
LAKE MICHIGAN

STATION/POSITION TIME  TEMP    WIND        PRES    WAVE
                       AIR SEA DIR/SP/G            HT/PER
                 (UTC) (F)     (DEG/KT/KT) (MB)    (FT/S)
CHAMBERS ISLAND  0540   63     150/  4/  9 1003.7S
S GREEN BAY BUOY 0530   67     180/ 12/ 14 1003.5F
N MID LAKE BUOY  0450   58 54  190/ 21/ 23 1005.1R   6/ 7
NORTHPORT PIER   0530   59     160/  7/ 14 1004.4S
KEWAUNEE LAKESHO 0530   54     180/ 16/ 18 1004.1F
SHEBOYGAN LAKESH 0500   57     180/ 20/ 22 1005.2F
PORT WASHINGTON  0530   58     190/  6/ 12 1006.8F
ATWATER BUOY     0409   57 47  160/ 10/ 12 1007.6F
MILWAUKEE LAKESH 0530   65     190/ 18/ 23   N/A
S MID LAKE BUOY  0450   61 60  210/  8/ 10 1010.8R   3/ 5
KENOSHA   LAKESH 0500   61     170/ 18/ 21 1008.1
$$

TC  - TEMPERATURE IN CELSIUS
VSB - VISIBILITY IN STATUTE MILES
WCI - WIND CHILL INDEX
HX  - HEAT INDEX





USA.gov is the U.S. government's official web portal to all federal, state and local government web resources and services.